Regional Weather Roundup
Issued by NWS

Home | Current Version | Previous Version | Graphics & Text | Print | Product List | Glossary On
Versions: 1 2 3 4 5 6 7 8 9 10 11 12 13 14 15 16 17 18 19 20 21 22 23 24 25 26 27 28 29 30 31 32 33 34 35 36 37 38 39 40 41 42 43 44 45 46 47 48 49 50
000
ASUS45 KCYS 020010
RWRWY

WYOMING REGIONAL WEATHER ROUNDUP
NATIONAL WEATHER SERVICE CHEYENNE WY
600 PM MDT WED APR 01 2015

NOTE:  "FAIR" INDICATES FEW OR NO CLOUDS BELOW 12,000 FEET
WITH NO SIGNIFICANT WEATHER AND/OR OBSTRUCTIONS TO VISIBILITY.

WYZ001-020100-
YELLOWSTONE NATIONAL PARK

CITY           SKY/WX    TMP DP  RH WIND       PRES   REMARKS
LK YELLOWSTONE   N/A     28   7  41 W13G21    29.94F WCI  17
6HR MIN TEMP:  23; 6HR MAX TEMP:  30;

W YELLOWSTONE  NOT AVBL

$$
WYZ002>013-054>058-071-098>099-020100-
NORTHERN WYOMING

CITY           SKY/WX    TMP DP  RH WIND       PRES   REMARKS
JACKSON        PTSUNNY   34  21  60 W15G24    29.97S WCI  24
CODY           FAIR      43  14  31 W20G29    29.91R
GREYBULL       FAIR      52   9  17 NW21G35   29.86R
6HR MIN TEMP:  50; 6HR MAX TEMP:  54;

WORLAND        PTSUNNY   49   9  19 N9        29.86R
6HR MIN TEMP:  49; 6HR MAX TEMP:  53;

SHERIDAN       PTSUNNY   50  12  21 NW15      29.85S
6HR MIN TEMP:  48; 6HR MAX TEMP:  51;

BUFFALO        CLOUDY    44  12  27 N7        29.87S
6HR MIN TEMP:  43; 6HR MAX TEMP:  49;

GILLETTE       PTSUNNY   49   9  19 NW24G32   29.85R
6HR MIN TEMP:  38; 6HR MAX TEMP:  51;

HULETT         MOCLDY    50   7  17 NW14G28   29.84R
NEWCASTLE      FAIR      46  18  31 NW18G25   29.84S

$$
WYZ014>020-022>026-101>103-020100-
CENTRAL WYOMING

CITY           SKY/WX    TMP DP  RH WIND       PRES   REMARKS
BIG PINEY      CLOUDY    40   7  25 NW21G26   29.97S WCI  30
6HR MIN TEMP:  37; 6HR MAX TEMP:  43;

PINEDALE       FAIR      34   9  35 W12G24    29.97R WCI  25
DUBOIS         CLOUDY    34   9  35 W25G31    29.90R WCI  21
LANDER         NOT AVBL
RIVERTON       FAIR      49   6  17 NW18      29.88R
6HR MIN TEMP:  49; 6HR MAX TEMP:  53;

CASPER         PTSUNNY   50  24  36 N18G24    29.83R
6HR MIN TEMP:  43; 6HR MAX TEMP:  53;

DOUGLAS        FAIR      48  27  44 N13       29.86R
6HR MIN TEMP:  47; 6HR MAX TEMP:  57;


$$
WYZ021-027>030-104>119-020100-
SOUTHERN WYOMING

CITY           SKY/WX    TMP DP  RH WIND       PRES   REMARKS
EVANSTON       FAIR      41   1  18 W20G28    30.00S
6HR MIN TEMP:  38; 6HR MAX TEMP:  43;

KEMMERER       FAIR      37   3  23 W20G26    29.98S WCI  27
FORT BRIDGER   FAIR      44   5  19 W17G26    30.00S
ROCK SPRINGS   FAIR      44   1  16 W18G25    29.95S
6HR MIN TEMP:  42; 6HR MAX TEMP:  47;

DIXON          FAIR      51   4  15 NW17G23   29.93S
RAWLINS        FAIR      46  -3  13 W23G33    29.90R
6HR MIN TEMP:  46; 6HR MAX TEMP:  51;

SARATOGA       FAIR      46   1  15 W21       29.91R
LARAMIE        FAIR      51   9  18 W26       29.85S
6HR MIN TEMP:  48; 6HR MAX TEMP:  54;

CHEYENNE       FAIR      55  12  18 NW23G32   29.81R
6HR MIN TEMP:  55; 6HR MAX TEMP:  62; 6HR PCP: TRACE;

TORRINGTON     FAIR      51  28  41 N24G30    29.81R
6HR MIN TEMP:  51; 6HR MAX TEMP:  71;

PINE BLUFFS    MOCLDY    57  10  15 NW21G28   29.79R

$$


USA.gov is the U.S. government's official web portal to all federal, state and local government web resources and services.